Content
SEND FEEDBACK

Daily
Averages
Monthly
Summary
United Kingdom

RADLETT, ENGLAND


Home > Europe > United Kingdom > England
Elevation: 240 feet     Latitude: 51 43N     Longitude: 000 19W

WEATHER
 
SELECT A DAY
Number of Records: 288,838;   Date Range: 7/1/96 - 7/9/14
 
SHARE

PRINT THIS DATA

[ ← Previous Day ]
WEATHER ALMANAC - OCTOBER 25, 2013
[ Next Day → ]
[ °C ]   °F
Weather ElementAverageHighLow
Temperature57.7 °F62.6 °F (11:50 am)53.6 °F (12:50 am)
Dewpoint54.9 °F59 °F (10:20 am)53.6 °F (12:50 am)
Humidity90.7 %100 % (12:50 am)72 % (4:20 pm)
Barometer29.65 in29.80 in (12:50 am)29.59 in (6:20 am)
Wind Speed13 mph17.3 mph (4:20 pm)
Wind Gust28.8 mph (6:50 pm)
Weather ElementAverage
Visibility5.4 mi
Wind DirectionSSE (173.4 °)

Weather ElementTotal
Precipitation---
Heating Degree Days6.9 (Base 65)
Growing Degree Days8.1 (Base 50)
Averaged from 47 records on October 25, 2013
WEATHER CONDITIONS BREAKOUT
WIND DIRECTION BREAKOUT
WEATHER BY HOUR - OCTOBER 25, 2013
[ °C ]   °F
Local TimeTemperatureDewpointHumidityBarometerVisibilityWind DirectionWind SpeedGust SpeedPrecipitationEventsConditions
12:50 AM53.6 °F53.6 °F100 %29.80 in4.3 miESE (120°)11.5 mphMostly Cloudy
1:20 AM53.6 °F53.6 °F100 %29.80 in5.0 miESE (120°)9.2 mphMostly Cloudy
1:50 AM53.6 °F53.6 °F100 %29.77 in5.6 miESE (120°)11.5 mphMostly Cloudy
2:20 AM53.6 °F53.6 °F100 %29.74 in3.7 miESE (120°)13.8 mphMostly Cloudy
2:50 AM55.4 °F53.6 °F94 %29.71 in4.3 miESE (120°)11.5 mphMostly Cloudy
3:20 AM53.6 °F53.6 °F100 %29.71 in4.3 miESE (120°)11.5 mphMostly Cloudy
3:50 AM53.6 °F53.6 °F100 %29.68 in5.0 miESE (110°)11.5 mphLight Drizzle
4:20 AM53.6 °F53.6 °F100 %29.65 in5.6 miESE (120°)11.5 mphLight Drizzle
4:50 AM53.6 °F53.6 °F100 %29.65 in5.0 miESE (120°)11.5 mphMostly Cloudy
5:20 AM53.6 °F53.6 °F100 %29.62 in3.7 miSE (130°)10.4 mphRainRain
5:50 AM53.6 °F53.6 °F100 %29.62 in3.1 miSE (130°)11.5 mphRainLight Rain
6:20 AM53.6 °F53.6 °F100 %29.59 inESE (120°)12.7 mphRainRain
6:50 AM53.6 °F53.6 °F100 %29.59 inSE (130°)10.4 mphRainLight Rain
7:20 AM55.4 °F55.4 °F100 %29.59 in1.9 miSE (130°)12.7 mphDrizzle
7:50 AM55.4 °F55.4 °F100 %29.59 in1.9 miSSE (150°)11.5 mphLight Drizzle
8:20 AM55.4 °F55.4 °F100 %29.59 in2.8 miSSE (150°)11.5 mphMostly Cloudy
8:50 AM57.2 °F57.2 °F100 %29.59 in3.7 miSSE (160°)10.4 mphMostly Cloudy
9:20 AM57.2 °F57.2 °F100 %29.62 in3.7 miSouth (180°)10.4 mphOvercast
9:50 AM57.2 °F57.2 °F100 %29.62 in4.3 miSouth (190°)10.4 mphMostly Cloudy
10:20 AM59.0 °F59.0 °F100 %29.62 in5.6 miSSW (200°)11.5 mphOvercast
10:50 AM59.0 °F59.0 °F100 %29.62 in6.2 miSSW (200°)11.5 mphMostly Cloudy
11:20 AM59.0 °F59.0 °F100 %29.65 in6.2 miSSW (200°)13.8 mphMostly Cloudy
11:50 AM62.6 °F59.0 °F88 %29.65 in6.2 miSSW (200°)15.0 mphScattered Clouds
12:20 PM60.8 °F59.0 °F94 %29.65 in6.2 miSSW (200°)13.8 mphScattered Clouds
12:50 PM60.8 °F57.2 °F88 %29.65 in6.2 miSSW (200°)12.7 mphMostly Cloudy
1:20 PM60.8 °F57.2 °F88 %29.65 in6.2 miSSW (200°)15.0 mphMostly Cloudy
1:50 PM62.6 °F57.2 °F82 %29.65 in6.2 miSSW (200°)12.7 mphScattered Clouds
2:20 PM60.8 °F55.4 °F82 %29.65 in6.2 miSSW (200°)12.7 mphMostly Cloudy
2:50 PM62.6 °F55.4 °F77 %29.65 in6.2 miSSW (200°)13.8 mphMostly Cloudy
3:20 PM62.6 °F55.4 °F77 %29.65 in6.2 miSSW (200°)12.7 mphScattered Clouds
3:50 PM62.6 °F55.4 °F77 %29.62 in6.2 miSouth (190°)15.0 mphScattered Clouds
4:20 PM62.6 °F53.6 °F72 %29.62 in6.2 miSSW (200°)17.3 mphScattered Clouds
4:50 PM60.8 °F53.6 °F77 %29.62 in6.2 miSSW (200°)15.0 mph26.5 mphPartly Cloudy
5:20 PM60.8 °F53.6 °F77 %29.65 in6.2 miSouth (190°)11.5 mphScattered Clouds
5:50 PM59.0 °F53.6 °F82 %29.65 in6.2 miSSW (200°)13.8 mphMostly Cloudy
6:20 PM59.0 °F53.6 °F82 %29.65 in6.2 miSSW (200°)12.7 mphScattered Clouds
6:50 PM59.0 °F53.6 °F82 %29.65 in6.2 miSSW (200°)15.0 mph28.8 mphRainLight Rain
7:20 PM59.0 °F53.6 °F82 %29.65 in6.2 miSSW (200°)16.1 mph27.6 mphScattered Clouds
7:50 PM59.0 °F53.6 °F82 %29.65 in6.2 miSSW (200°)12.7 mphMostly Cloudy
8:20 PM59.0 °F53.6 °F82 %29.65 in6.2 miSSW (200°)17.3 mphMostly Cloudy
8:50 PM57.2 °F53.6 °F88 %29.65 in6.2 miSSW (200°)17.3 mphPartly Cloudy
9:20 PM57.2 °F53.6 °F88 %29.65 in6.2 miSSW (210°)15.0 mphMostly Cloudy
9:50 PM59.0 °F53.6 °F82 %29.65 in6.2 miSSW (210°)13.8 mphMostly Cloudy
10:20 PM59.0 °F53.6 °F82 %29.65 in6.2 miSSW (200°)16.1 mph27.6 mphMostly Cloudy
10:50 PM59.0 °F53.6 °F82 %29.68 in6.2 miSSW (200°)13.8 mphMostly Cloudy
11:20 PM57.2 °F53.6 °F88 %29.68 in6.2 miSSW (200°)13.8 mphMostly Cloudy
11:50 PM57.2 °F53.6 °F88 %29.68 in6.2 miSSW (210°)13.8 mphMostly Cloudy
Hourly data recorded from EGGW, located miles away from Radlett, England







STORIES FROM OUR PARTNERS